This demonstration page uses our WeatherBlox Daily Observations layout. Learn more.

41.55636, -103.73856

Hourly Observations for August 15, 2015

Temp ( °F °C ) Dew Point ( °F °C ) Humidity (%) Winds ( mph kmh ) Pressure ( in mb ) Visibility ( mi km ) Precip ( " mm )
12:53 am 00:53 Clear 70 21.1 63 17.2 79 79 ESE 7 11 29.93 1014 10 16.0934 0 0
1:53 am 01:53 Clear 68 20 63 17.2 84 84 E 6 9 29.92 1013 10 16.0934 0 0
2:53 am 02:53 Clear 67 19.4 64 17.8 91 91 E 6 9 29.91 1013 10 16.0934 0 0
3:53 am 03:53 Clear 67 19.4 64 17.8 91 91 E 10 17 29.89 1012 10 16.0934 0 0
4:53 am 04:53 Clear 68 20 64 17.8 87 87 E 8 13 29.89 1012 10 16.0934 0 0
5:53 am 05:53 Clear 68 20 64 17.8 87 87 ESE 8 13 29.89 1012 10 16.0934 0 0
6:53 am 06:53 Sunny 67 19.4 63 17.2 87 87 ESE 9 15 29.91 1013 9 14.48406 0 0
7:53 am 07:53 Sunny 69 20.6 63 17.2 81 81 ESE 7 11 29.91 1013 10 16.0934 0 0
8:53 am 08:53 Sunny 72 22.2 63 17.2 73 73 E 7 11 29.92 1013 10 16.0934 0 0
9:53 am 09:53 Sunny 80 26.7 64 17.8 58 58 VRB 5 7 29.9 1013 10 16.0934 0 0
10:53 am 10:53 Sunny 85 29.4 63 17.2 48 48 Calm 29.9 1012 10 16.0934 0 0
11:53 am 11:53 Sunny 89 31.7 62 16.7 41 41 ENE 3 6 29.89 1012 10 16.0934 0 0
12:53 pm 12:53 Sunny 94 34.4 61 16.1 33 33 E 5 7 29.86 1011 10 16.0934 0 0
1:53 pm 13:53 Sunny 97 36.1 57 13.9 26 26 S 7 11 29.83 1010 10 16.0934 0 0
2:53 pm 14:53 Sunny 100 37.8 54 12.2 21 21 SSW 9 15 29.8 1009 10 16.0934 0 0
3:53 pm 15:53 Sunny 96 35.6 55 12.8 25 25 S 7 11 29.79 1009 10 16.0934 0 0
4:13 pm 16:13 Sunny with Nearby Thunderstorms 93 33.9 60 15.6 33 33 S 12 19 29.59 1002 10 16.0934 0 0
4:32 pm 16:32 Partly Cloudy with Nearby Thunderstorms 86 30 54 12 33 33 W 32 52 29.71 1006 7 11.26538 0 0
4:45 pm 16:45 Mostly Cloudy with Thunderstorms 81 27.2 58 14.4 45 45 W 18 30 29.83 1010 9 14.48406 0 0
4:53 pm 16:53 Cloudy with Light Thunderstorms 75 23.9 60 15.6 60 60 WNW 16 26 29.96 1015 10 16.0934 0 0.0254
5:23 pm 17:23 Mostly Cloudy with Nearby Thunderstorms 75 23.9 60 15.6 60 60 WNW 8 13 29.85 1011 6 9.65604 0 0.0254
5:42 pm 17:42 Cloudy with Light Rain 79 26 61 16 54 54 SE 14 22 29.8 1009 7 11.26538 0 0
5:51 pm 17:51 Cloudy with Nearby Thunderstorms 81 27 57 14 45 45 SSE 12 19 29.74 1007 10 16.0934 0.03 0.762
5:53 pm 17:53 Cloudy with Nearby Thunderstorms 80 26.7 57 13.9 45 45 SSE 12 19 29.89 1012 10 16.0934 0.03 0.762
6:20 pm 18:20 Partly Cloudy 79 26 59 15 51 51 S 12 19 29.74 1007 10 16.0934 0 0
6:53 pm 18:53 Sunny 80 26.7 57 13.9 45 45 ESE 14 22 29.86 1011 10 16.0934 0 0.0254
7:53 pm 19:53 Sunny 73 22.8 61 16.1 66 66 SSW 6 9 29.88 1012 10 16.0934 0 0
8:53 pm 20:53 Clear 70 21.1 62 16.7 76 76 N 3 6 29.89 1012 10 16.0934 0 0
9:53 pm 21:53 Clear 70 21.1 61 16.1 73 73 NW 7 11 29.91 1013 10 16.0934 0 0
10:53 pm 22:53 Clear 70 21.1 62 16.7 76 76 W 6 9 29.88 1012 10 16.0934 0 0
11:53 pm 23:53 undefined 72 22.2 61 16.1 68 68 SE 13 20 29.89 1012 10 16.0934 0 0

Powered by AerisWeather